Regional Weather Roundup
Issued by NWS

Home | Current Version | Previous Version | Text Only | Print | Product List | Glossary Off
Versions: 1 2 3 4 5 6 7 8 9 10 11 12 13 14 15 16 17 18 19 20 21 22 23 24 25 26 27

000
ASUS45 KSLC 021110
RWRUT

UTAH REGIONAL WEATHER ROUNDUP
NATIONAL WEATHER SERVICE SALT LAKE CITY UT
500 AM MDT MON MAY 02 2016

UTZ001>011-023>025-021200-

NORTHERN UTAH

CITY           SKY/WX    TMP DP  RH WIND       PRES   REMARKS
BRIGHAM CITY   CLEAR     48  24  39 NW6       30.17R
HILL AFB       CLEAR     43  26  50 E15G26    30.15S
LOGAN          CLEAR     43  26  51 CALM      30.20R
OGDEN          CLEAR     46  27  47 E3        30.14R
PROVO AIRPORT  PTCLDY    41  28  60 CALM      30.15S
SALT LAKE CITY PTCLDY    43  34  70 CALM      30.14R
VERNAL         CLEAR     32  23  69 NW6       30.22R WCI  26
WENDOVER       CLEAR     43  34  70 S3        30.14S
HEBER CITY     CLEAR     30  27  86 CALM      30.21R

$$

UTZ012>022-026-027-021200-

SOUTHERN/CENTRAL UTAH

CITY           SKY/WX    TMP DP  RH WIND       PRES   REMARKS
BLANDING       CLOUDY    42  37  83 SE5       30.28S
BRYCE CANYON   CLEAR     27  25  92 SW5       30.22R WCI  22
CEDAR CITY     CLOUDY    43  38  82 CALM      30.14R
DELTA          CLOUDY    43  36  75 S5        30.14R
HANKSVILLE     CLOUDY    50  37  62 W3        30.19R
MILFORD        CLOUDY    47  37  68 NE6       30.14R
MOAB/CYNLANDS  CLOUDY    50  39  66 E3        30.16R
PRICE          MOCLDY    44  27  51 NE9       30.18S
ST GEORGE      SUNNY     52  39  62 CALM      30.12S

$$

REGIONAL REPORTS     COLORADO/ARIZONA

CITY           SKY/WX    TMP DP  RH WIND       PRES   REMARKS
CRAIG, CO      PTCLDY    27  22  81 CALM      30.22S
GRAND JUNCTION CLOUDY    44  39  82 SE6       30.18R
RIFLE          CLOUDY    44  39  82 CALM      30.20R
MONTROSE       CLOUDY    41  38  89 W3        30.23R
CORTEZ         PTCLDY    39  33  79 CALM      30.22R
PAGE, AZ       CLOUDY    51  41  68 CALM      30.15R
GRAND CANYON   CLEAR     31  28  89 CALM      30.18R
KINGMAN        CLEAR     51  32  48 E12       30.06R
FLAGSTAFF      CLEAR     28  27  96 CALM      30.17S

$$

REGIONAL REPORTS    NEVADA/IDAHO/WYOMING

CITY           SKY/WX    TMP DP  RH WIND       PRES   REMARKS
LAS VEGAS, NV  CLEAR     59  45  59 CALM      29.98R
ELY            CLEAR     30  27  88 S7        30.19R WCI  23
ELKO           CLEAR     35  29  78 CALM      30.15R
POCATELLO, ID  CLEAR     40  26  57 NW3       30.20R
BURLEY         CLEAR     34  31  88 SW3       30.15R
EVANSTON, WY   CLOUDY    31  22  69 E13       30.25R WCI  21
ROCK SPRINGS   CLOUDY    27  20  75 NE3       30.26R

$$




USA.gov is the U.S. government's official web portal to all federal, state and local government web resources and services.